Aeroporto :
LOGIN :

Iscrizione | Disclaimer

   EN    FR    IT 

 










Sommario :    VFR   VFR Marginale   IFR   IFR Intensivo   IFR Molto Intensivo
Visibilità : 
Base nubi : 
>= 8 km
>= 3000ft
5 / 8 km
1000 / 3000 ft
1500m / 5 km
500 / 1000 ft
800 / 1500m
200 / 500 ft
< 800m
< 200 ft
Simboli :   Temporali  Nebbia  Neve Forte  Precipitazioni Forti  Vento > 20 kt
SIGMETs :   Varie  Temporali  Ghiacco  Turbolenza  Onda orograficha  Ceneri Vulcaniche







- Altitudine del aeroporto : 1306 ft
- Codice IATA : ACH


LSZR - Alten Rhein

ULTIMO METAR :
  • 171720Z VRB01KT 8000 FEW040 BKN048 02/02 Q1027 NOSIG RMK O

METARs OBSOLETI :
  • 171650Z VRB01KT 7000 -RA BKN020 02/02 Q1027 NOSIG RMK N
  • 171620Z VRB01KT 7000 -RA BKN020 03/02 Q1027 NOSIG RMK N
  • 171550Z 10003KT 8000 BKN027 02/02 Q1025 NOSIG RMK M
  • 171520Z 10003KT 8000 BKN027 02/02 Q1025 NOSIG RMK M
  • 171450Z 28002KT 9999 FEW005 BKN060 03/02 Q1025 NOSIG RMK L

TAF TAF LSZR
Valido dal 17 a 15 ore il 18 a 00 ore UTC


171425Z 1715/1724 VRB03KT 9000 FEW005 SCT030 BKN060
BECMG 1718/1721 3000 MIFG BKN005
BECMG 1721/1723 0800 FG VV003
ATIS : +41 71 858 51 66
Nessun NOTAM noto per questo aeroporto.



MetMap, La meteo Aeronautica in un colpo d'occhio ! - Copyright ORBIFLY Dicembre 2007 - Disclaimer

ORBIFLY MET'MAP TEAM :

Programmazione e sviluppo : Alexandra Zaïnal
Concezione e sviluppo : Baudouin d'Aumeries
Co-Programmazione e sviluppo : Marc-Olivier Méhu
Supporto tecnico e logistico : Manuel Goepfert
Aiuto per la traduzione : Arnaldo La Scala

Contatto : metmap@orbifly.com




FONTI E CREDITI :

   NOAA